GW3044 Weather Reports


time (UTC)temp
C
wind
direction
speed
KPH
gust
KPH
rain 1hr
cm
rain 24hr
cm
rain mn
cm
humidity
%
barometer
mb
20260510143755 17 113 4.8 11.3 0.00 0.00 0.00 71 990.0
20260510143252 18 29 6.4 11.3 0.00 0.00 0.00 71 989.9
20260510142748 17 52 4.8 16.1 0.00 0.00 0.00 72 989.9
20260510142245 17 113 0.0 12.9 0.00 0.00 0.00 74 990.1
20260510141742 17 45 4.8 12.9 0.00 0.00 0.00 73 989.8
20260510141241 17 7 3.2 14.5 0.00 0.00 0.00 73 989.6
20260510140737 17 351 0.0 16.1 0.00 0.00 0.00 74 989.5
20260510140232 17 34 9.7 14.5 0.00 0.00 0.00 73 989.6
20260510135726 17 26 4.8 22.5 0.00 0.00 0.00 73 989.3
20260510135222 17 67 6.4 14.5 0.00 0.00 0.00 72 989.3
20260510134720 17 21 3.2 11.3 0.00 0.00 0.00 72 989.2
20260510134217 17 349 4.8 17.7 0.00 0.00 0.00 72 989.1
20260510133713 17 18 3.2 11.3 0.00 0.00 0.00 73 989.1
20260510133208 17 352 3.2 14.5 0.00 0.00 0.00 72 989.1
20260510132659 17 30 4.8 16.1 0.00 0.00 0.00 72 989.1
20260510132156 17 109 1.6 12.9 0.00 0.00 0.00 74 988.8
20260510131654 17 19 4.8 14.5 0.00 0.00 0.00 74 988.7
20260510131151 17 110 4.8 12.9 0.00 0.00 0.00 75 988.7
20260510130647 16 21 4.8 14.5 0.00 0.00 0.00 74 988.6
20260510130145 16 48 3.2 14.5 0.00 0.00 0.00 75 988.7
20260510125641 16 75 4.8 11.3 0.00 0.00 0.00 76 988.5
20260510125137 16 17 3.2 12.9 0.00 0.00 0.00 77 988.4
20260510124635 16 13 4.8 11.3 0.00 0.00 0.00 78 988.2
20260510124131 16 25 3.2 12.9 0.00 0.00 0.00 78 988.2
20260510123627 16 5 6.4 14.5 0.00 0.00 0.00 78 988.2
20260510123123 16 39 4.8 11.3 0.00 0.00 0.00 79 988.1
20260510122619 16 96 3.2 8.0 0.00 0.00 0.00 79 987.9
20260510122115 16 0 1.6 8.0 0.00 0.00 0.00 80 987.8
20260510121612 16 128 4.8 12.9 0.00 0.00 0.00 80 987.8
20260510121109 16 351 4.8 8.0 0.00 0.00 0.00 81 987.8
20260510120607 15 16 3.2 9.7 0.00 0.00 0.00 82 987.6
20260510115559 15 15 3.2 8.0 0.00 0.00 0.00 83 987.5
20260510115056 15 28 3.2 9.7 0.00 0.00 0.00 83 987.6
20260510114552 15 18 3.2 9.7 0.00 0.00 0.00 83 987.6
20260510114049 15 13 4.8 9.7 0.00 0.00 0.00 82 987.4
20260510113543 15 31 1.6 8.0 0.00 0.00 0.00 82 987.0
20260510113041 15 334 3.2 8.0 0.00 0.00 0.00 82 986.9
20260510112538 15 30 3.2 4.8 0.00 0.00 0.00 82 986.9
20260510112034 15 38 4.8 4.8 0.00 0.00 0.00 82 986.9
20260510111531 14 41 3.2 4.8 0.00 0.00 0.00 83 986.9
20260510111027 14 353 0.0 4.8 0.00 0.00 0.00 85 986.8
20260510110523 13 16 1.6 4.8 0.00 0.00 0.00 86 986.6
20260510110020 13 82 0.0 3.2 0.00 0.00 0.00 88 986.5
20260510105515 13 44 0.0 3.2 0.00 0.00 0.00 90 986.5
20260510105010 12 43 1.6 4.8 0.00 0.00 0.00 92 986.5
20260510104507 12 2 3.2 4.8 0.00 0.00 0.00 94 986.6
20260510104003 12 329 1.6 4.8 0.00 0.00 0.00 94 986.6
20260510103501 12 17 3.2 3.2 0.00 0.00 0.00 94 986.7
20260510102956 12 9 4.8 4.8 0.00 0.00 0.00 94 986.6
20260510102452 12 10 1.6 4.8 0.00 0.00 0.00 93 986.8
20260510101949 12 66 0.0 3.2 0.00 0.00 0.00 93 986.5
20260510101447 13 10 1.6 3.2 0.00 0.00 0.00 93 986.6
20260510100945 13 24 1.6 3.2 0.00 0.00 0.00 92 986.5
20260510100441 13 89 0.0 3.2 0.00 0.00 0.00 92 986.3
20260510095937 13 186 0.0 0.0 0.00 0.00 0.00 92 986.2
20260510095433 13 113 0.0 0.0 0.00 0.00 0.00 93 986.2
20260510094932 13 107 0.0 1.6 0.00 0.00 0.00 92 986.2
20260510094427 13 69 0.0 1.6 0.00 0.00 0.00 92 986.0
20260510093923 13 0 0.0 3.2 0.00 0.00 0.00 92 985.9
20260510093419 13 83 0.0 1.6 0.00 0.00 0.00 91 986.0
20260510092915 13 50 0.0 3.2 0.00 0.00 0.00 91 986.0
20260510092413 13 25 1.6 3.2 0.00 0.00 0.00 90 985.8
20260510091907 13 30 0.0 3.2 0.00 0.00 0.00 90 985.8
20260510091404 13 355 1.6 3.2 0.00 0.00 0.00 90 985.7
20260510090901 13 124 0.0 0.0 0.00 0.00 0.00 91 985.8
20260510090357 13 186 0.0 1.6 0.00 0.00 0.00 92 985.6
20260510085853 13 51 0.0 3.2 0.00 0.00 0.00 91 985.4
20260510085348 13 359 1.6 3.2 0.00 0.00 0.00 90 985.7
20260510084844 13 21 1.6 3.2 0.00 0.00 0.00 90 985.7
20260510084341 13 55 0.0 1.6 0.00 0.00 0.00 89 985.4
20260510083838 13 50 0.0 0.0 0.00 0.00 0.00 89 985.2
20260510083335 13 54 0.0 3.2 0.00 0.00 0.00 89 985.2
20260510082830 13 50 0.0 1.6 0.00 0.00 0.00 89 985.1
20260510082327 13 339 0.0 1.6 0.00 0.00 0.00 88 985.1
20260510081825 13 25 1.6 3.2 0.00 0.00 0.00 89 984.9
20260510081317 13 274 0.0 1.6 0.00 0.00 0.00 89 985.1
20260510080813 13 63 0.0 3.2 0.00 0.00 0.00 89 985.2
20260510080308 13 23 1.6 3.2 0.00 0.00 0.00 88 985.7
20260510075805 13 355 0.0 3.2 0.00 0.00 0.00 88 985.8
20260510075306 13 50 0.0 3.2 0.00 0.00 0.00 89 985.6
20260510074759 13 131 0.0 3.2 0.00 0.00 0.00 89 985.7
20260510074256 13 66 0.0 0.0 0.00 0.00 0.00 88 985.6
20260510073752 13 89 0.0 1.6 0.00 0.00 0.00 89 985.3
20260510073248 13 77 0.0 0.0 0.00 0.00 0.00 88 985.2
20260510072744 13 123 0.0 1.6 0.00 0.00 0.00 88 985.1
20260510072241 13 22 0.0 0.0 0.00 0.00 0.00 88 985.1
20260510071737 13 66 0.0 1.6 0.00 0.00 0.00 87 985.0
20260510071234 13 60 0.0 0.0 0.00 0.00 0.00 86 985.2
20260510070733 14 113 0.0 0.0 0.00 0.00 0.00 86 985.2
20260510070229 14 113 0.0 1.6 0.00 0.00 0.00 85 985.1
20260510065724 15 230 0.0 0.0 0.00 0.00 0.00 83 985.0
20260510065220 14 89 0.0 0.0 0.00 0.00 0.00 84 985.0
20260510064717 14 89 0.0 3.2 0.00 0.00 0.00 83 985.1
20260510064215 15 76 0.0 1.6 0.00 0.00 0.00 82 985.1
20260510063711 15 328 1.6 1.6 0.00 0.00 0.00 83 985.0
20260510063207 15 103 0.0 3.2 0.00 0.00 0.00 82 985.1
20260510062704 15 29 0.0 3.2 0.00 0.00 0.00 79 985.4
20260510062201 16 10 0.0 3.2 0.00 0.00 0.00 78 985.3
20260510061655 16 44 0.0 3.2 0.00 0.00 0.00 77 985.2
20260510061153 16 326 0.0 4.8 0.00 0.00 0.00 78 985.2
20260510060649 15 323 1.6 8.0 0.00 0.00 0.00 78 985.4
20260510060146 13 298 0.0 8.0 0.00 0.00 0.00 90 985.2
20260510055642 14 5 3.2 4.8 0.00 0.00 0.00 89 985.0
20260510055140 13 26 1.6 3.2 0.00 0.00 0.00 88 985.1
20260510054636 14 76 0.0 0.0 0.00 0.00 0.00 87 984.9
20260510054132 14 37 0.0 0.0 0.00 0.00 0.00 87 985.0
20260510053630 14 37 0.0 1.6 0.00 0.00 0.00 88 985.0
20260510053128 14 89 0.0 1.6 0.00 0.00 0.00 88 984.6
20260510052623 15 113 0.0 0.0 0.00 0.00 0.00 87 984.9
20260510052119 15 103 0.0 1.6 0.00 0.00 0.00 87 985.0
20260510051609 15 135 0.0 1.6 0.00 0.00 0.00 86 984.9
20260510051107 15 224 0.0 1.6 0.00 0.00 0.00 85 984.9
20260510050604 15 309 0.0 1.6 0.00 0.00 0.00 85 984.8
20260510050101 15 309 0.0 3.2 0.00 0.00 0.00 86 984.7
20260510045558 15 130 0.0 1.6 0.00 0.00 0.00 86 984.8
20260510045054 15 66 0.0 1.6 0.00 0.00 0.00 85 984.5
20260510044550 15 89 0.0 1.6 0.00 0.00 0.00 85 984.6
20260510044048 15 49 0.0 1.6 0.00 0.00 0.00 85 984.7
20260510043543 15 52 0.0 1.6 0.00 0.00 0.00 84 984.8
20260510043039 15 66 0.0 1.6 0.00 0.00 0.00 84 984.6
20260510042533 15 103 0.0 0.0 0.00 0.00 0.00 83 984.6
20260510042028 15 113 0.0 1.6 0.00 0.00 0.00 83 984.7
20260510041525 15 55 0.0 1.6 0.00 0.00 0.00 83 984.7
20260510041023 15 5 0.0 1.6 0.00 0.00 0.00 83 984.4
20260510040519 15 29 0.0 1.6 0.00 0.00 0.00 83 984.5
20260510040015 15 222 0.0 1.6 0.00 0.00 0.00 83 984.4
20260510035512 15 58 0.0 3.2 0.00 0.00 0.00 82 984.2
20260510035010 15 50 0.0 3.2 0.00 0.00 0.00 81 984.4
20260510034510 16 24 0.0 3.2 0.00 0.00 0.00 81 984.2
20260510034006 16 305 0.0 3.2 0.00 0.00 0.00 79 984.3
20260510033502 16 182 0.0 1.6 0.00 0.00 0.00 78 984.3
20260510032959 16 241 4.8 4.8 0.00 0.00 0.00 79 984.3
20260510032456 15 55 0.0 0.0 0.00 0.00 0.00 80 984.0
20260510031951 16 89 0.0 0.0 0.00 0.00 0.00 79 984.0
20260510031447 16 89 0.0 1.6 0.00 0.00 0.00 78 984.0
20260510030943 16 89 0.0 1.6 0.00 0.00 0.00 77 984.2
20260510030438 16 89 0.0 1.6 0.00 0.00 0.00 76 984.1
20260510025936 16 89 0.0 0.0 0.00 0.00 0.00 74 983.9
20260510025433 16 69 0.0 1.6 0.00 0.00 0.00 72 983.8
20260510024931 17 102 0.0 0.0 0.00 0.00 0.00 72 983.8
20260510024427 17 76 0.0 1.6 0.00 0.00 0.00 70 983.6
20260510023923 17 346 1.6 3.2 0.00 0.00 0.00 70 983.5
20260510023419 17 350 1.6 3.2 0.00 0.00 0.00 70 983.1
20260510022917 17 35 1.6 1.6 0.00 0.00 0.00 68 982.9
20260510022415 17 54 0.0 1.6 0.00 0.00 0.00 67 983.2
20260510021915 18 55 0.0 0.0 0.00 0.00 0.00 66 982.9
20260510021413 18 55 0.0 0.0 0.00 0.00 0.00 66 983.1
20260510020909 18 55 0.0 1.6 0.00 0.00 0.00 63 982.8
20260510020404 18 76 0.0 0.0 0.00 0.00 0.00 62 982.9
20260510015900 19 89 0.0 1.6 0.00 0.00 0.00 61 982.8
20260510015356 19 44 0.0 3.2 0.00 0.00 0.00 61 982.7
20260510014851 19 30 0.0 3.2 0.00 0.00 0.00 61 982.2
20260510014349 20 313 0.0 3.2 0.00 0.00 0.00 59 982.5
20260510013845 20 13 0.0 3.2 0.00 0.00 0.00 58 982.5
20260510013341 20 69 0.0 1.6 0.00 0.00 0.00 57 982.2
20260510012836 20 269 0.0 0.0 0.00 0.00 0.00 56 981.9
20260510012336 21 89 0.0 1.6 0.00 0.00 0.00 53 981.9
20260510011831 21 76 0.0 1.6 0.00 0.00 0.00 52 982.0
20260510011326 22 268 0.0 1.6 0.00 0.00 0.00 50 982.3
20260510010823 22 297 0.0 0.0 0.00 0.00 0.00 49 982.1
20260510010321 22 62 0.0 0.0 0.00 0.00 0.00 48 982.0
20260510005817 23 117 0.0 0.0 0.00 0.00 0.00 46 982.0
20260510005313 23 269 0.0 1.6 0.00 0.00 0.00 45 981.7
20260510004811 23 230 0.0 0.0 0.00 0.00 0.00 43 981.9
20260510004308 24 230 0.0 0.0 0.00 0.00 0.00 41 981.7
20260510003806 24 230 0.0 0.0 0.00 0.00 0.00 41 981.7
20260510003303 25 284 0.0 1.6 0.00 0.00 0.00 40 981.6
20260510002801 25 217 0.0 0.0 0.00 0.00 0.00 40 981.7
20260510002259 25 256 0.0 3.2 0.00 0.00 0.00 37 981.4
20260510001755 25 246 0.0 6.4 0.00 0.00 0.00 36 981.7
20260510001254 25 240 0.0 0.0 0.00 0.00 0.00 38 981.7
20260510000749 26 63 0.0 0.0 0.00 0.00 0.00 36 981.6
20260510000248 26 339 0.0 4.8 0.00 0.00 0.00 35 981.6
20260509235744 26 269 0.0 3.2 0.00 0.00 0.00 35 981.5
20260509235240 26 256 0.0 6.4 0.00 0.00 0.00 35 981.6
20260509234736 26 237 0.0 3.2 0.00 0.00 0.00 36 981.7
20260509234233 26 293 0.0 6.4 0.00 0.00 0.00 34 981.8
20260509233731 27 274 3.2 4.8 0.00 0.00 0.00 34 981.8
20260509233228 27 91 0.0 4.8 0.00 0.00 0.00 33 981.8
20260509232724 27 58 0.0 4.8 0.00 0.00 0.00 34 981.7
20260509232222 28 322 0.0 4.8 0.00 0.00 0.00 32 981.6
20260509231718 28 282 0.0 6.4 0.00 0.00 0.00 31 981.7
20260509231215 28 320 3.2 8.0 0.00 0.00 0.00 32 981.8
20260509230713 28 336 3.2 4.8 0.00 0.00 0.00 32 981.6
20260509230209 28 326 3.2 8.0 0.00 0.00 0.00 33 981.7
20260509225705 27 216 1.6 11.3 0.00 0.00 0.00 33 981.6
20260509225201 28 166 0.0 6.4 0.00 0.00 0.00 34 981.6
20260509224657 28 197 0.0 8.0 0.00 0.00 0.00 33 981.6
20260509224154 28 242 0.0 3.2 0.00 0.00 0.00 32 981.8
20260509223650 28 111 8.0 11.3 0.00 0.00 0.00 30 981.3
20260509223148 28 235 8.0 9.7 0.00 0.00 0.00 30 981.6
20260509222645 28 224 3.2 6.4 0.00 0.00 0.00 30 981.6
20260509222140 27 299 3.2 11.3 0.00 0.00 0.00 30 981.6
20260509221636 28 351 4.8 8.0 0.00 0.00 0.00 28 981.9
20260509221132 28 346 6.4 8.0 0.00 0.00 0.00 29 981.9
20260509220628 28 0 4.8 6.4 0.00 0.00 0.00 30 981.8
20260509220124 27 332 6.4 8.0 0.00 0.00 0.00 29 981.8
20260509215620 28 348 3.2 9.7 0.00 0.00 0.00 32 981.6
20260509215117 28 328 4.8 9.7 0.00 0.00 0.00 28 981.7
20260509214614 28 221 0.0 4.8 0.00 0.00 0.00 31 981.7
20260509214111 28 202 3.2 11.3 0.00 0.00 0.00 32 981.9
20260509213607 28 220 3.2 11.3 0.00 0.00 0.00 30 981.7
20260509213104 28 308 3.2 8.0 0.00 0.00 0.00 30 981.8
20260509212601 28 342 4.8 16.1 0.00 0.00 0.00 30 981.9
20260509212058 30 348 6.4 8.0 0.00 0.00 0.00 28 981.7
20260509211554 28 17 1.6 6.4 0.00 0.00 0.00 29 981.9
20260509211050 28 351 3.2 12.9 0.00 0.00 0.00 29 981.8
20260509210548 27 230 6.4 12.9 0.00 0.00 0.00 30 981.8
20260509210044 28 313 3.2 12.9 0.00 0.00 0.00 29 982.2
20260509205538 28 21 0.0 8.0 0.00 0.00 0.00 31 982.0
20260509205034 28 290 0.0 4.8 0.00 0.00 0.00 26 982.1
20260509204530 28 96 3.2 4.8 0.00 0.00 0.00 34 982.1
20260509204026 28 340 6.4 6.4 0.00 0.00 0.00 29 982.1
20260509203522 28 347 3.2 8.0 0.00 0.00 0.00 35 982.1
20260509203021 27 216 1.6 6.4 0.00 0.00 0.00 28 982.0
20260509202520 27 319 3.2 8.0 0.00 0.00 0.00 30 982.3
20260509202016 27 337 3.2 16.1 0.00 0.00 0.00 35 982.3
20260509201511 27 271 3.2 9.7 0.00 0.00 0.00 29 982.4
20260509201009 27 354 4.8 14.5 0.00 0.00 0.00 32 982.4
20260509200504 28 12 3.2 6.4 0.00 0.00 0.00 28 982.3
20260509200001 28 200 0.0 12.9 0.00 0.00 0.00 29 982.5
20260509195456 27 147 0.0 6.4 0.00 0.00 0.00 34 982.5
20260509194956 27 297 1.6 9.7 0.00 0.00 0.00 34 982.5
20260509194451 27 228 4.8 8.0 0.00 0.00 0.00 32 982.5
20260509193948 27 330 3.2 9.7 0.00 0.00 0.00 30 982.6
20260509193443 28 239 4.8 11.3 0.00 0.00 0.00 31 982.6
20260509192939 27 321 3.2 4.8 0.00 0.00 0.00 31 982.5
20260509192436 27 266 1.6 8.0 0.00 0.00 0.00 33 982.7
20260509191931 27 310 4.8 17.7 0.00 0.00 0.00 34 982.6
20260509191426 27 236 0.0 8.0 0.00 0.00 0.00 34 982.6
20260509190923 27 315 4.8 14.5 0.00 0.00 0.00 35 982.7
20260509190420 27 356 3.2 9.7 0.00 0.00 0.00 33 982.8
20260509185918 27 228 0.0 9.7 0.00 0.00 0.00 35 982.9
20260509185415 27 346 4.8 9.7 0.00 0.00 0.00 32 982.7
20260509184911 27 337 6.4 17.7 0.00 0.00 0.00 34 982.9
20260509184409 27 133 3.2 4.8 0.00 0.00 0.00 30 982.9
20260509183905 27 344 11.3 11.3 0.00 0.00 0.00 31 982.9
20260509183359 27 229 6.4 9.7 0.00 0.00 0.00 33 982.6
20260509182856 26 317 3.2 9.7 0.00 0.00 0.00 35 982.8
20260509182353 26 200 0.0 6.4 0.00 0.00 0.00 33 982.6
20260509181851 27 109 0.0 6.4 0.00 0.00 0.00 34 982.8
20260509181347 27 224 0.0 9.7 0.00 0.00 0.00 36 982.7
20260509180845 26 230 0.0 8.0 0.00 0.00 0.00 37 982.7
20260509180340 26 0 3.2 12.9 0.00 0.00 0.00 40 982.4
20260509175838 27 301 3.2 8.0 0.00 0.00 0.00 40 982.8
20260509175334 26 328 4.8 8.0 0.00 0.00 0.00 37 982.8
20260509174830 26 350 4.8 8.0 0.00 0.00 0.00 37 982.8
20260509174326 26 224 6.4 8.0 0.00 0.00 0.00 39 982.7
20260509173822 26 9 3.2 11.3 0.00 0.00 0.00 37 983.0
20260509173317 25 359 9.7 11.3 0.00 0.00 0.00 39 982.8
20260509172814 26 227 3.2 6.4 0.00 0.00 0.00 43 982.9
20260509172311 26 304 4.8 6.4 0.00 0.00 0.00 39 983.1
20260509171806 26 346 0.0 8.0 0.00 0.00 0.00 41 983.2
20260509171303 26 339 1.6 8.0 0.00 0.00 0.00 41 983.2
20260509170759 26 322 4.8 8.0 0.00 0.00 0.00 40 983.1
20260509170255 26 232 4.8 8.0 0.00 0.00 0.00 41 983.1
20260509165754 26 10 3.2 6.4 0.00 0.00 0.00 42 983.2
20260509165249 25 332 6.4 11.3 0.00 0.00 0.00 41 983.0
20260509164746 25 351 4.8 16.1 0.00 0.00 0.00 41 983.1
20260509164242 26 30 1.6 4.8 0.00 0.00 0.00 45 982.9
20260509163744 26 328 4.8 6.4 0.00 0.00 0.00 43 983.1
20260509163235 25 351 9.7 12.9 0.00 0.00 0.00 42 983.1
20260509162734 26 223 0.0 4.8 0.00 0.00 0.00 45 983.4
20260509162228 25 358 8.0 8.0 0.00 0.00 0.00 41 983.2
20260509161724 25 323 4.8 9.7 0.00 0.00 0.00 46 983.0
20260509161220 25 337 4.8 9.7 0.00 0.00 0.00 46 983.0
20260509160715 24 350 6.4 12.9 0.00 0.00 0.00 49 983.1
20260509160212 24 271 1.6 9.7 0.00 0.00 0.00 47 983.1
20260509155707 24 152 1.6 8.0 0.00 0.00 0.00 49 983.1
20260509155204 25 324 1.6 3.2 0.00 0.00 0.00 51 983.2
20260509154700 23 287 0.0 11.3 0.00 0.00 0.00 49 983.1
20260509154157 24 339 3.2 6.4 0.00 0.00 0.00 50 982.9
20260509153654 23 225 8.0 8.0 0.00 0.00 0.00 53 982.7
20260509153151 23 3 3.2 8.0 0.00 0.00 0.00 55 983.1
20260509152646 23 350 3.2 9.7 0.00 0.00 0.00 54 983.0
20260509152144 23 248 0.0 4.8 0.00 0.00 0.00 56 983.0
20260509151640 22 3 0.0 8.0 0.00 0.00 0.00 60 982.9
20260509151137 22 329 1.6 6.4 0.00 0.00 0.00 61 983.0
20260509150635 22 345 4.8 8.0 0.00 0.00 0.00 61 983.0
20260509150133 21 315 0.0 6.4 0.00 0.00 0.00 65 983.0
20260509145629 21 2 3.2 4.8 0.00 0.00 0.00 66 983.1
20260509145125 21 193 3.2 8.0 0.00 0.00 0.00 68 983.0
20260509144621 21 279 1.6 4.8 0.00 0.00 0.00 67 983.1